Вернуться в каталог

COSMOS 2328

АктивенНавигацияPO
NORAD 23790·PAYLOAD·🇷🇺 Russia

Запущен Feb 19, 1996 с Plesetsk Cosmodrome

Loading…

Ближайшие Пролёты (ближайшие 24 часа)

TLE

СвежийSource: Space-Track

Эпоха: Sep 14, 2026, 06:11 UTC

1 23790U 96009D   26257.25779241  .00000006  00000-0 -27304-4 0  9991
2 23790  82.5724 262.7001 0007044 207.5922 152.4796 12.62605124408714

Отслеживайте COSMOS 2328 в реальном времени с AllMySat

Download on the App Store